User: anonymous   Login
Location: Albany
(35.0000°S, 118.0000°E)
Time: 18:16:06
(UTC-04:00)
Language:

Cosmos 1758 Rocket - Orbit

View from above orbital plane
View from above orbital plane
View from above satellite
View from above satellite

Ground track
Ground track

The orbit data is extracted from the following two-line orbital elements,

1 16792U 86046B   15212.88750052  .00000168  00000-0  17662-4 0  9996
2 16792 082.4848 128.1020 0025289 035.6221 032.7563 14.82945502573168
Epoch (UTC): 31 July 2015 21:18:00
Eccentricity: 0.0025289
inclination: 82.4848°
perigee height: 602 km
apogee height: 638 km
right ascension of ascending node: 128.1020°
argument of perigee: 35.6221°
revolutions per day: 14.82945502
mean anomaly at epoch: 32.7563°
orbit number at epoch: 57316

The dashed part of the orbit path shows where the satellite is in the earth's shadow,  

DLR